Location: La Bastide
(43.1661°N, 1.2755°E)
Time: 09:04:12
(UTC+00:00)

ISS - Pass Details

Date: 24 February 2026
Orbit: 416 x 426 km, 51.6° (Epoch: 9 March)

Event Time Altitude Azimuth Distance (km) Brightness Sun altitude
Exits shadow 04:04:18 13° 36° (NE) 1,350 -0.6 -28.9°
Drops below altitude 10° 04:04:46 10° 42° (NE) 1,496 -0.3 -28.8°
Sets 04:07:12 0° 58° (ENE) 2,359 1.2 -28.4°
